Stourport, United Kingdom
Current Conditions -  °F | °C
As of 8:20 PM on Monday 22 Dec 2014 (Local Time) from EGBB Reporting Station
Broken Clouds Broken Clouds  
Wind Chill: 54°   Ceiling: 1600
Heat Index: 54°   Visibility: 6mi
Dew Point: 48°   Wind: 17mph
Humidity: 82%   Direction: 230°SW
Pressure: 29.94"   Gusts: 30mph
Location:  52.33°N, 2.28°W
Report Text: EGBB 222020Z 23015G26KT 210V270 9999 BKN016 12/09 Q1014
Loading
Personal Weather Stations






























Interactive Weather Map New forecast layout! Learn more

10-Day Weather Forecast

Advertisements
Track Severe Weather on mobile